Location: Apple Hill Campground
(44.2915°N, 71.6726°W)
Time: 19:45:01
(UTC+00:00)

BlueWalker 3 - Pass Details

Date: 10 October 2024
Orbit: 470 x 481 km, 53.2° (Epoch: 11 November)

Event Time Altitude Azimuth Distance (km) Brightness Sun altitude
Exits shadow 09:02:27 36° 346° (NNW) 760 2.7 -21.0°
Drops below altitude 10° 09:05:39 10° 45° (NE) 1,634 5.3 -20.5°
Sets 09:07:55 0° 54° (NE) 2,514 6.6 -20.1°
